Regional Weather Roundup
Issued by NWS

Home | Current Version | Previous Version | Graphics & Text | Print | Product List | Glossary On
Versions: 1 2 3 4 5 6 7 8 9 10 11 12 13 14 15 16 17 18 19 20 21 22 23 24 25 26 27 28 29 30 31 32 33 34 35 36 37 38 39 40 41 42 43 44 45 46 47 48 49 50
000
ASUS43 KIND 300009
RWRIN

WEATHER ROUNDUP FOR INDIANA
NATIONAL WEATHER SERVICE INDIANAPOLIS IN
800 PM EDT SUN MAR 29 2015

NOTE: "FAIR" INDICATES FEW OR NO CLOUDS BELOW 12,000 FEET WITH NO
SIGNIFICANT WEATHER AND/OR OBSTRUCTIONS TO VISIBILITY.

* - STATION DOES NOT REPORT WEATHER SUCH AS PRECIPITATION OR FOG.

+ - STATION NOT QUALITY CONTROLLED BY THE NATIONAL WEATHER SERVICE.
    USE DATA WITH CAUTION...ESPECIALLY DEWPOINT AND RELATIVE
    HUMIDITY OBSERVATIONS.

INZ001>003-010>013-019-020-300100-
NORTHWEST INDIANA

CITY           SKY/WX    TMP DP  RH WIND       PRES   REMARKS
GARY /AIRPORT/ CLOUDY    48  30  49 SW13G24   29.78F
KNOX *+          N/A     41  21  45 SW18      29.83F
LA PORTE +     CLOUDY    44  35  70 SW16      29.81F
6HR MIN TEMP:  37; 6HR MAX TEMP:  45;

MICHIGAN CITY+ CLOUDY    43  30  61 S14G20    29.79F
MONTICELLO +   PTCLDY    42  34  72 SW14      29.88R
6HR MIN TEMP:  37; 6HR MAX TEMP:  43; 6HR PCP:  0.02;

RENSSELAER +   MOCLDY    43  37  81 S15       29.85F
VALPARAISO     CLOUDY    43  34  70 S14       29.81F
6HR MIN TEMP:  35; 6HR MAX TEMP:  44; 6HR PCP:  0.01;


$$

LMZ046-743>745-300100-
SOUTHERN LAKE MICHIGAN

STATION/POSITION TIME  TEMP WIND        PRES
                       AIR  DIR/SP/G
                 (UTC) (F)  (DEG/KT/KT) (MB)
BURNS HARBOR     0000   45  200/ 18/ 25 1008.8S
MICHIGAN CITY    0000   44  170/ 19/ 23   N/A

$$

INZ004-005-014>016-021>024-300100-
NORTH CENTRAL INDIANA

CITY           SKY/WX    TMP DP  RH WIND       PRES   REMARKS
GOSHEN         CLOUDY    41  28  60 SW21G29   29.82F
6HR MIN TEMP:  37; 6HR MAX TEMP:  43; 6HR PCP:  0.01;

LOGANSPORT +   CLOUDY    41  32  70 SW13      29.89S
PERU/GRISSOM   MOCLDY    41  32  71 SW14      29.88S
6HR MIN TEMP:  39; 6HR MAX TEMP:  44; 6HR PCP:  0.02;

ROCHESTER +    MOCLDY    43  32  65 SW12G18   29.87F
SOUTH BEND     CLOUDY    43  30  60 SW21G29   29.81F
6HR MIN TEMP:  38; 6HR MAX TEMP:  43; 6HR PCP: TRACE;

WARSAW +       CLOUDY    41  30  65 SW10G22   29.86S

$$

INZ006>009-017-018-025>027-300100-
NORTHEAST INDIANA

CITY           SKY/WX    TMP DP  RH WIND       PRES   REMARKS
ANGOLA *+      CLOUDY    39  25  56 SW12      29.83F
AUBURN +       CLOUDY    41  25  52 SW9G22    29.87S
FORT WAYNE     CLOUDY    41  28  60 SW18      29.89F
6HR MIN TEMP:  40; 6HR MAX TEMP:  45; 6HR PCP: TRACE;

HUNTINGTON +   CLOUDY    40  25  54 SW12G18   29.89S
6HR MIN TEMP:  39; 6HR MAX TEMP:  44;


$$

INZ028-029-035-036-043>045-051>053-300100-
WEST CENTRAL INDIANA

CITY           SKY/WX    TMP DP  RH WIND       PRES   REMARKS
CRAWFORDSVL +  MOCLDY    39  31  72 SW8       29.92R
6HR MIN TEMP:  37; 6HR MAX TEMP:  46; 6HR PCP:  0.01;

GREENCASTLE +  CLOUDY    43  32  65 CALM      29.94F
LAFAYETTE      PTCLDY    43  34  70 SW8       29.90S
6HR MIN TEMP:  38; 6HR MAX TEMP:  45; 6HR PCP:  0.02;

TERRE HAUTE    CLOUDY    46  38  73 SW6       29.94F
6HR MIN TEMP:  44; 6HR MAX TEMP:  51; 6HR PCP:  0.02;


$$

INZ030>032-037>040-046>048-054>057-064-065-300100-
CENTRAL INDIANA

CITY           SKY/WX    TMP DP  RH WIND       PRES   REMARKS
CP ATTERBURY + RAIN      43  34  70 CALM      29.94F
COLUMBUS       LGT RAIN  45  32  61 S12       29.92F
FRANKFORT +    MOCLDY    40  35  81 S9        29.92S
6HR MIN TEMP:  39; 6HR MAX TEMP:  45; 6HR PCP:  0.01;

GREENWOOD *+   CLOUDY    45  32  61 SW8       29.95R
INDIANAPOLIS   CLOUDY    43  34  70 SW9       29.93R
6HR MIN TEMP:  43; 6HR MAX TEMP:  51; 6HR PCP:  0.06;

-EAGLE CREEK   CLOUDY    43  34  70 SW5       29.93R
6HR MIN TEMP:  43; 6HR MAX TEMP:  50; 6HR PCP:  0.08;

KOKOMO *+        N/A     41  30  65 SW14      29.90S
6HR MIN TEMP:  39; 6HR MAX TEMP:  43; 6HR PCP:  0.02;

MARION +       CLOUDY    38  31  78 S9        29.91F
MT COMFORT *+  CLOUDY    41  28  60 SW6       29.94R
SHELBYVILLE    LGT RAIN  45  34  65 SW8       29.95F
6HR MIN TEMP:  44; 6HR MAX TEMP:  51; 6HR PCP:  0.05;

ZIONSVILLE +   CLOUDY    42  33  70 S10       29.93F
6HR MIN TEMP:  41; 6HR MAX TEMP:  47; 6HR PCP:  0.05;


$$

INZ033-034-041-042-049-050-058-059-300100-
EAST CENTRAL INDIANA

CITY           SKY/WX    TMP DP  RH WIND       PRES   REMARKS
MUNCIE         CLOUDY    42  32  67 SW12      29.93R
6HR MIN TEMP:  41; 6HR MAX TEMP:  46; 6HR PCP:  0.08;


$$

INZ060-061-067>069-081>083-085>088-300100-
SOUTHWEST INDIANA

CITY           SKY/WX    TMP DP  RH WIND       PRES   REMARKS
EVANSVILLE     LGT RAIN  58  37  45 S14       29.96F
6HR MIN TEMP:  53; 6HR MAX TEMP:  62; 6HR PCP: TRACE;

HUNTINGBURG *+ CLOUDY    57  34  41 SW10      30.00S
6HR MIN TEMP:  50; 6HR MAX TEMP:  57;

WASHINGTON +   LGT RAIN  52  36  54 S13G21    29.92F
6HR MIN TEMP:  49; 6HR MAX TEMP:  55;


$$

INZ062-063-066-070>080-084-089>092-300100-
SOUTH CENTRAL AND SOUTHEAST INDIANA

CITY           SKY/WX    TMP DP  RH WIND       PRES   REMARKS
BEDFORD +      DRIZZLE   54  28  37 S13G20    29.95F
BLOOMINGTON    RAIN      46  37  71 W6        29.94F
6HR MIN TEMP:  46; 6HR MAX TEMP:  53; 6HR PCP:  0.07;

NORTH VERNON + LGT RAIN  50  28  43 SW3       30.00R
SEYMOUR +      CLOUDY    50  36  57 S9        29.96F

$$



USA.gov is the U.S. government's official web portal to all federal, state and local government web resources and services.